Regional Weather Roundup
Issued by NWS Goodland, KS

Home | Current Version | Previous Version | Graphics & Text | Print | Product List | Glossary On
Versions: 1 2 3 4 5 6 7 8 9 10 11 12 13 14 15 16 17 18 19 20 21 22 23 24 25 26 27 28 29 30 31 32 33 34 35 36 37 38 39 40 41 42 43 44 45 46 47 48 49 50
000
ASUS43 KGLD 291759
RWRGLD

GOODLAND FORECAST AREA HOURLY WEATHER ROUNDUP
NATIONAL WEATHER SERVICE GOODLAND KS
1200 PM MDT WED OCT 29 2014

...OFFICIAL OBSERVATIONS...

CITY           SKY/WX    TMP DP  RH WIND       PRES   REMARKS
GOODLAND KS    SUNNY     67  23  19 VRB5      30.13F
HILL CITY KS   FAIR      63  34  33 S8        30.14F
IMPERIAL NEB   SUNNY     64  28  25 SW8       30.11F
MCCOOK NEB     SUNNY     59  29  31 S7        30.13F
AKRON CO       SUNNY     62  21  20 SW10      30.15F
BURLINGTON CO  SUNNY     67  18  15 MISG      30.14F
LIMON CO       SUNNY     63  13  14 CALM      30.18F
$$

...UNOFFICIAL OBSERVATIONS...

CITY           SKY/WX    TMP DP  RH WIND       PRES   REMARKS
COLBY KS       SUNNY     66  37  34 S3        30.14S
NORTON KS      SUNNY     61  23  23 SE8       30.12F
SHARON SPRINGS   N/A     65  36  33 W6          N/A
TRIBUNE KS     SUNNY     66  43  42 SW6       30.16F
TRENTON NEB      N/A     59  32  36 SW5         N/A
YUMA CO          N/A     64  22  20 CALM        N/A
$$



USA.gov is the U.S. government's official web portal to all federal, state and local government web resources and services.